Regional Weather Roundup
Issued by NWS

Home | Current Version | Previous Version | Text Only | Print | Product List | Glossary Off
Versions: 1 2 3 4 5 6 7 8 9 10 11 12 13 14 15 16 17 18 19 20 21 22 23 24 25 26 27 28 29 30 31 32 33 34 35 36 37 38 39 40 41 42 43 44 45 46 47 48 49 50

348
ASUS44 KJAN 280610
RWRMS

MISSISSIPPI HOURLY WEATHER ROUNDUP
NATIONAL WEATHER SERVICE JACKSON MS
100 AM CDT THU AUG 28 2014

NOTE: "FAIR: INDICATES FEW OR NO CLOUDS BELOW 12,000 FEET WITH NO
SIGNIFICANT WEATHER AND/OR OBSTRUCTIONS TO VISIBILITY.

MSZ001>002-007>008-010>013-018>021-025>028-034>036-280700-
NORTHWEST MISSISSIPPI

CITY           SKY/WX    TMP DP  RH WIND       PRES   REMARKS
CLARKSDALE       N/A     72  72 100 CALM      30.03S
CLEVELAND      FAIR      71  71  99 CALM      30.01S
GREENWOOD      FAIR      70  67  90 NE6       30.02R
6HR MIN TEMP:  69; 6HR MAX TEMP:  82;

GREENVILLE     FAIR      71  68  90 CALM      30.01S
6HR MIN TEMP:  71; 6HR MAX TEMP:  87; 6HR PCP: TRACE;

GRENADA        FAIR      66  64  94 CALM      30.03S
OLIVE BRANCH   CLEAR     75  72  88 E3        30.04S
OXFORD         FAIR      66  64  94 CALM      30.05S
TUNICA         FAIR      72  68  88 CALM      30.03S
$$

MSZ003>006-009-014>017-022>024-029>033-037>039-280700-
NORTHEAST MISSISSIPPI

CITY           SKY/WX    TMP DP  RH WIND       PRES   REMARKS
BELMONT        FAIR      70  69  96 CALM      30.04F
COLUMBUS AFB   FAIR      68  67  94 CALM      30.02S
6HR MIN TEMP:  68; 6HR MAX TEMP:  84;

CORINTH        FAIR      70  68  94 CALM      30.03S
GOLDN TRIANGLE FAIR      72  63  73 CALM      30.03S
STARKVILLE     FAIR      70  64  83 CALM      30.02S
TUPELO         FAIR      72  68  87 CALM      30.02F
6HR MIN TEMP:  72; 6HR MAX TEMP:  86;

$$

MSZ040-058-280700-
CENTRAL MISSISSIPPI

CITY           SKY/WX    TMP DP  RH WIND       PRES   REMARKS
JACKSON INTL   FAIR      73  67  81 S3        30.02R
6HR MIN TEMP:  70; 6HR MAX TEMP:  86;

JACKSON HAWKNS FAIR      72  67  84 CALM      30.03R
6HR MIN TEMP:  71; 6HR MAX TEMP:  88;

MERIDIAN KEY   FAIR      68  64  87 CALM      30.02S
6HR MIN TEMP:  68; 6HR MAX TEMP:  86;

MERIDIAN NAS   FAIR      70  65  84 CALM      30.02S
6HR MIN TEMP:  70; 6HR MAX TEMP:  89;

RAYMOND        FAIR      70  64  83 CALM      30.02F
VICKSBURG      FAIR      70  68  93 S3        30.01S
6HR MIN TEMP:  69; 6HR MAX TEMP:  88;

$$

MSZ059>079-280700-
SOUTH MISSISSIPPI

CITY           SKY/WX    TMP DP  RH WIND       PRES   REMARKS
BROOKHAVEN     FAIR      73  72  94 CALM      30.04S
COLUMBIA       FAIR      73  72  94 CALM      30.00S FOG
HATTIESBURG    FAIR      75  71  87 CALM      30.02S
6HR MIN TEMP:  74; 6HR MAX TEMP:  91;

MCCOMB         MOCLDY    75  72  90 CALM      30.02S
6HR MIN TEMP:  75; 6HR MAX TEMP:  84;

NATCHEZ        FAIR      75  72  88 S3        30.02S
6HR MIN TEMP:  75; 6HR MAX TEMP:  88;

PINE BELT      FAIR     N/A N/A N/A CALM      30.03S
$$

MSZ080>082-280700-
COASTAL MISSISSIPPI

CITY           SKY/WX    TMP DP  RH WIND       PRES   REMARKS
BILOXI         CLOUDY    80  75  84 NE2       29.99F
6HR MIN TEMP:  79; 6HR MAX TEMP:  85;

PASCAGOULA     FAIR      73  72  96 CALM      30.00S
6HR MIN TEMP:  73; 6HR MAX TEMP:  84;

GULFPORT       MOCLDY    78  74  87 CALM      29.99F
6HR MIN TEMP:  78; 6HR MAX TEMP:  86;

$$



USA.gov is the U.S. government's official web portal to all federal, state and local government web resources and services.